[ hide orbit diagram ]
For accurate long-term ephemerides, please instead use our Horizons system.This orbit viewer was implemented using two-body methods, and hence should not be used for determining accurate long-term trajectories (over several years or decades) or planetary encounter circumstances.
[ revert to old Java-based viewer ]
Orbital Elements at Epoch 2444972.5 (1982-Jan-03.0) TDB
Reference: JPL 5 (heliocentric ecliptic J2000)
Element | Value | Uncertainty (1-sigma) | Units |
e | 1.057731876173255 | 5.0344e-06 | |
a | -58.26829222588107 | 0.0050785 | au |
q | 3.363937831611605 | 1.9185e-06 | au |
i | 1.661712630614323 | 3.8781e-05 | deg |
node | 114.5581951921299 | 0.0013786 | deg |
peri | 135.0826233919265 | 0.0013803 | deg |
M | -.1513193748893878 | 1.9886e-05 | deg |
tp | 2445040.787136080390 (1982-Mar-12.28713608) | 0.00042992 | TDB |
period | n/a n/a | n/a n/a | d yr |
n | .002215927970844309 | 2.897e-07 | deg/d |
Q | n/a | n/a | au |
|
| | Orbit Determination Parameters
Additional Information
|
[ show covariance matrix ]
[ show close-approach data ]
|